カタログに戻る

STARLINK-34228

運用中通信VLEO
NORAD 64171·PAYLOAD·🇺🇸 United States

打ち上げ May 28, 2025 から Cape Canaveral Space Force Station

Loading…

次のパス (今後24時間)

TLE

最新Source: CelesTrak SupGP

元期: Sep 14, 2026, 23:11 UTC

1 64171C 25113B   26257.96645833  .00048298  00000+0  15533-2 0  2573
2 64171  53.1568 290.1710 0001150  99.4995 112.0413 15.31673581    14

AllMySatでSTARLINK-34228をリアルタイム追跡

Download on the App Store